When you browse on this site, cookies collect data to enhance your experience and personalize the content and advertising you see.
Visit our Privacy Policy to learn more. By continuing to use the site, you agree to this use of cookies and data.
  • In Deutschland
  • Länderverzeichnis
  • Für 7 Tage
  • Wassertemperatur
  • Satellitenkarten
  • Wetterkarte
  • Widgets
  • user-avatar
    Anmelden

    Stündliche Wetter Newcastle

    Heute, 22 Mai, Mittwoch

    Zeit Temperatur Niederschläge Wind Luftdruck Luftfeuchtigkeit
    00:00 +17°C° 0 mm 3 m/S 768 mmHg 74%
    01:00 +17°C° 0 mm 3 m/S 768 mmHg 74%
    02:00 +16°C° 0 mm 3 m/S 768 mmHg 74%
    03:00 +16°C° 0 mm 3 m/S 768 mmHg 75%
    04:00 +16°C° 0 mm 3 m/S 768 mmHg 78%
    05:00 +14°C° 0 mm 3 m/S 769 mmHg 78%
    06:00 +14°C° 0 mm 3 m/S 769 mmHg 79%
    07:00 +14°C° 0 mm 3 m/S 769 mmHg 80%
    08:00 +17°C° 0 mm 2 m/S 769 mmHg 72%
    09:00 +20°C° 0 mm 2 m/S 769 mmHg 64%
    10:00 +23°C° 0 mm 2 m/S 769 mmHg 56%
    11:00 +25°C° 0 mm 2 m/S 769 mmHg 52%
    12:00 +26°C° 0 mm 2 m/S 769 mmHg 49%
    13:00 +27°C° 0 mm 2 m/S 768 mmHg 45%
    14:00 +26°C° 0 mm 2 m/S 768 mmHg 52%
    15:00 +25°C° 0 mm 3 m/S 768 mmHg 58%
    16:00 +22°C° 0 mm 3 m/S 768 mmHg 65%
    17:00 +21°C° 0 mm 3 m/S 768 mmHg 74%
    18:00 +19°C° 0 mm 2 m/S 769 mmHg 83%
    19:00 +18°C° 0 mm 2 m/S 769 mmHg 92%
    20:00 +17°C° 0.3 mm 2 m/S 769 mmHg 93%
    21:00 +18°C° 0.3 mm 1 m/S 769 mmHg 94%
    22:00 +18°C° 0.3 mm 1 m/S 770 mmHg 95%
    23:00 +18°C° 0.3 mm 1 m/S 770 mmHg 95%

    Morgen, 23 Mai, Donnerstag

    Zeit Temperatur Niederschläge Wind Luftdruck Luftfeuchtigkeit
    00:00 +16°C° 0.3 mm 2 m/S 770 mmHg 94%
    01:00 +16°C° 0.3 mm 2 m/S 769 mmHg 94%
    02:00 +16°C° 0.2 mm 2 m/S 769 mmHg 95%
    03:00 +16°C° 0.2 mm 2 m/S 769 mmHg 95%
    04:00 +16°C° 0.2 mm 3 m/S 769 mmHg 96%
    05:00 +16°C° 0.5 mm 3 m/S 769 mmHg 97%
    06:00 +16°C° 0.5 mm 3 m/S 770 mmHg 97%
    07:00 +16°C° 0.5 mm 3 m/S 770 mmHg 97%
    08:00 +17°C° 0.4 mm 3 m/S 770 mmHg 91%
    09:00 +18°C° 0.4 mm 3 m/S 770 mmHg 85%
    10:00 +20°C° 0.4 mm 2 m/S 770 mmHg 80%
    11:00 +21°C° 0.2 mm 2 m/S 769 mmHg 73%
    12:00 +24°C° 0.2 mm 2 m/S 769 mmHg 66%
    13:00 +25°C° 0.2 mm 2 m/S 768 mmHg 60%
    14:00 +24°C° 0 mm 2 m/S 768 mmHg 63%
    15:00 +23°C° 0 mm 2 m/S 768 mmHg 67%
    16:00 +23°C° 0 mm 2 m/S 767 mmHg 70%
    17:00 +21°C° 0 mm 1 m/S 768 mmHg 78%
    18:00 +19°C° 0 mm 1 m/S 768 mmHg 85%
    19:00 +16°C° 0 mm 0 m/S 768 mmHg 93%
    20:00 +16°C° 0 mm 1 m/S 768 mmHg 94%
    21:00 +16°C° 0 mm 1 m/S 768 mmHg 95%
    22:00 +16°C° 0 mm 1 m/S 768 mmHg 96%
    23:00 +16°C° 0.1 mm 1 m/S 768 mmHg 96%

    übermorgen, 24 Mai, Freitag

    Zeit Temperatur Niederschläge Wind Luftdruck Luftfeuchtigkeit
    00:00 +15°C° 0.1 mm 1 m/S 768 mmHg 97%
    01:00 +15°C° 0.1 mm 2 m/S 768 mmHg 97%
    02:00 +15°C° 0 mm 2 m/S 767 mmHg 97%
    03:00 +14°C° 0 mm 2 m/S 767 mmHg 97%
    04:00 +14°C° 0 mm 2 m/S 767 mmHg 97%
    05:00 +14°C° 0 mm 2 m/S 767 mmHg 97%
    06:00 +14°C° 0 mm 2 m/S 767 mmHg 96%
    07:00 +13°C° 0 mm 2 m/S 767 mmHg 96%
    08:00 +16°C° 0 mm 2 m/S 767 mmHg 87%
    09:00 +18°C° 0 mm 2 m/S 767 mmHg 77%
    10:00 +20°C° 0 mm 2 m/S 767 mmHg 68%
    11:00 +21°C° 0 mm 2 m/S 766 mmHg 60%
    12:00 +24°C° 0 mm 2 m/S 765 mmHg 52%
    13:00 +25°C° 0 mm 1 m/S 765 mmHg 44%
    14:00 +25°C° 0 mm 1 m/S 765 mmHg 47%
    15:00 +24°C° 0 mm 1 m/S 764 mmHg 50%
    16:00 +23°C° 0 mm 1 m/S 764 mmHg 53%
    17:00 +20°C° 0 mm 2 m/S 764 mmHg 57%
    18:00 +18°C° 0 mm 2 m/S 765 mmHg 62%
    19:00 +16°C° 0 mm 3 m/S 765 mmHg 66%
    20:00 +16°C° 0 mm 3 m/S 765 mmHg 66%
    21:00 +16°C° 0 mm 3 m/S 765 mmHg 65%
    22:00 +14°C° 0 mm 3 m/S 765 mmHg 65%
    23:00 +14°C° 0 mm 3 m/S 765 mmHg 62%

    25 Mai, Samstag

    Zeit Temperatur Niederschläge Wind Luftdruck Luftfeuchtigkeit
    00:00 +14°C° 0 mm 3 m/S 765 mmHg 60%
    01:00 +13°C° 0 mm 3 m/S 764 mmHg 57%
    02:00 +13°C° 0 mm 3 m/S 764 mmHg 58%
    03:00 +13°C° 0 mm 3 m/S 764 mmHg 58%
    04:00 +13°C° 0 mm 3 m/S 764 mmHg 58%
    05:00 +13°C° 0 mm 3 m/S 764 mmHg 60%
    06:00 +13°C° 0 mm 3 m/S 764 mmHg 61%
    07:00 +12°C° 0 mm 3 m/S 764 mmHg 62%
    08:00 +16°C° 0 mm 3 m/S 764 mmHg 58%
    09:00 +18°C° 0 mm 3 m/S 764 mmHg 53%
    10:00 +21°C° 0 mm 3 m/S 764 mmHg 48%
    11:00 +22°C° 0 mm 3 m/S 763 mmHg 46%
    12:00 +24°C° 0 mm 3 m/S 763 mmHg 44%
    13:00 +25°C° 0 mm 2 m/S 762 mmHg 42%
    14:00 +25°C° 0 mm 2 m/S 762 mmHg 45%
    15:00 +24°C° 0 mm 1 m/S 762 mmHg 48%
    16:00 +24°C° 0 mm 1 m/S 761 mmHg 51%
    17:00 +22°C° 0 mm 1 m/S 761 mmHg 54%
    18:00 +19°C° 0 mm 2 m/S 762 mmHg 57%
    19:00 +17°C° 0 mm 3 m/S 762 mmHg 60%
    20:00 +17°C° 0 mm 3 m/S 762 mmHg 61%
    21:00 +16°C° 0 mm 3 m/S 762 mmHg 62%
    22:00 +14°C° 0 mm 3 m/S 762 mmHg 63%
    23:00 +14°C° 0 mm 3 m/S 762 mmHg 61%

    26 Mai, Sonntag

    Zeit Temperatur Niederschläge Wind Luftdruck Luftfeuchtigkeit
    00:00 +14°C° 0 mm 3 m/S 761 mmHg 60%
    01:00 +13°C° 0 mm 3 m/S 761 mmHg 58%
    02:00 +13°C° 0 mm 4 m/S 761 mmHg 57%
    03:00 +13°C° 0 mm 4 m/S 761 mmHg 55%
    04:00 +14°C° 0 mm 4 m/S 760 mmHg 54%
    05:00 +14°C° 0 mm 4 m/S 761 mmHg 54%
    06:00 +14°C° 0 mm 5 m/S 761 mmHg 53%
    07:00 +14°C° 0 mm 5 m/S 761 mmHg 53%
    08:00 +16°C° 0 mm 5 m/S 761 mmHg 49%
    09:00 +19°C° 0 mm 5 m/S 760 mmHg 44%
    10:00 +21°C° 0 mm 5 m/S 760 mmHg 40%
    11:00 +23°C° 0 mm 5 m/S 759 mmHg 37%
    12:00 +24°C° 0 mm 6 m/S 758 mmHg 34%
    13:00 +27°C° 0 mm 6 m/S 758 mmHg 31%
    14:00 +26°C° 0 mm 5 m/S 758 mmHg 35%
    15:00 +25°C° 0 mm 4 m/S 757 mmHg 39%
    16:00 +23°C° 0 mm 4 m/S 757 mmHg 42%
    17:00 +21°C° 0 mm 4 m/S 758 mmHg 45%
    18:00 +20°C° 0 mm 4 m/S 758 mmHg 47%
    19:00 +18°C° 0 mm 4 m/S 758 mmHg 50%
    20:00 +17°C° 0 mm 4 m/S 759 mmHg 52%
    21:00 +16°C° 0 mm 5 m/S 759 mmHg 53%
    22:00 +16°C° 0 mm 6 m/S 759 mmHg 55%
    23:00 +15°C° 0 mm 6 m/S 759 mmHg 55%

    27 Mai, Montag

    Zeit Temperatur Niederschläge Wind Luftdruck Luftfeuchtigkeit
    00:00 +14°C° 0 mm 6 m/S 759 mmHg 55%
    01:00 +14°C° 0 mm 6 m/S 759 mmHg 56%
    02:00 +13°C° 0 mm 6 m/S 760 mmHg 56%
    03:00 +13°C° 0 mm 6 m/S 760 mmHg 56%
    04:00 +12°C° 0 mm 5 m/S 761 mmHg 56%
    05:00 +10°C° 0 mm 5 m/S 761 mmHg 58%
    06:00 +10°C° 0 mm 5 m/S 762 mmHg 59%
    07:00 +9°C° 0 mm 5 m/S 762 mmHg 61%
    08:00 +10°C° 0 mm 5 m/S 762 mmHg 54%
    09:00 +13°C° 0 mm 4 m/S 763 mmHg 47%
    10:00 +14°C° 0 mm 4 m/S 763 mmHg 40%
    11:00 +15°C° 0 mm 4 m/S 762 mmHg 38%
    12:00 +17°C° 0 mm 3 m/S 761 mmHg 36%
    13:00 +18°C° 0 mm 3 m/S 761 mmHg 33%
    14:00 +18°C° 0 mm 2 m/S 760 mmHg 36%
    15:00 +18°C° 0 mm 2 m/S 760 mmHg 39%
    16:00 +18°C° 0 mm 2 m/S 760 mmHg 42%
    17:00 +16°C° 0 mm 3 m/S 761 mmHg 42%
    18:00 +14°C° 0 mm 4 m/S 761 mmHg 42%
    19:00 +13°C° 0 mm 5 m/S 761 mmHg 42%
    20:00 +12°C° 0 mm 5 m/S 761 mmHg 43%
    21:00 +10°C° 0 mm 5 m/S 761 mmHg 44%
    22:00 +10°C° 0 mm 5 m/S 762 mmHg 45%
    23:00 +9°C° 0 mm 5 m/S 761 mmHg 46%
    Mehr zeigen